Findlay, OH

3:42 AM EST on December 13, 2019 (GMT -0500)
Findlay

Weather History for KFDY - October, 2019

Change the Weather History Date:

Saturday, October 26, 2019

  Actual Average Record
Temperature  
Mean Temperature 52 °F -  
Max Temperature 62 °F 57 °F 82 °F (1963)
Min Temperature 44 °F 39 °F 22 °F (1962)
Degree Days  
Heating Degree Days 12    
Growing Degree Days 2 (Base 50)    
Moisture  
Dew Point 48 °F    
Average Humidity 87    
Maximum Humidity 94    
Minimum Humidity 80    
Precipitation  
Precipitation 0.85 in - - ()
Sea Level Pressure  
Sea Level Pressure 29.94 in    
Wind  
Wind Speed 10 mph (East)    
Max Wind Speed 22 mph    
Max Gust Speed 31 mph    
Visibility 6 miles    
Events Rain    
Averages and records for this station are not official NWS values.
T = Trace of Precipitation, MM = Missing Value Source: NWS Daily Summary

Daily Weather History Graph

Daily Weather History Graph

Search for Another Location

Airport or City:

Astronomy

Oct. 26, 2019 Rise Set
Actual Time 7:58 AM EDT 6:38 PM EDT
Civil Twilight 7:30 AM EDT 7:06 PM EDT
Nautical Twilight 6:57 AM EDT 7:38 PM EDT
Astronomical Twilight 6:25 AM EDT 8:10 PM EDT
Moon 5:50 AM EDT (10/26) 6:14 PM EDT (10/26)
Length of Visible Light 11h 36m
Length of Day
10h 40m
Waning Crescent, 3% of the Moon is Illuminated
Oct 26
Waning Crescent
Oct 27
New
Nov 4
First Quarter
Nov 12
Full
Nov 19
Last Quarter

Hourly Weather History & Observations

Time (EDT) Temp. Windchill Dew Point Humidity Pressure Visibility Wind Dir Wind Speed Gust Speed Precip Events Conditions
12:53 AM 45.0 °F 41.8 °F 39.9 °F 82% 30.21 in 10.0 mi NE 5.8 mph - N/A   Clear
1:41 AM 45.0 °F 41.8 °F 41.0 °F 86% 30.20 in 2.5 mi ENE 5.8 mph - N/A   Clear
1:50 AM 44.6 °F 42.2 °F 41.0 °F 87% 30.20 in 10.0 mi ENE 4.6 mph - N/A   Clear
1:53 AM 45.0 °F 41.8 °F 41.0 °F 86% 30.21 in 10.0 mi ENE 5.8 mph - N/A   Clear
2:53 AM 44.1 °F 41.5 °F 39.9 °F 85% 30.20 in 10.0 mi East 4.6 mph - N/A   Clear
3:53 AM 44.1 °F 40.1 °F 39.9 °F 85% 30.18 in 10.0 mi ENE 6.9 mph - N/A   Clear
4:53 AM 44.1 °F 40.8 °F 39.0 °F 82% 30.17 in 10.0 mi East 5.8 mph - N/A   Clear
5:53 AM 45.0 °F 41.2 °F 39.9 °F 82% 30.17 in 10.0 mi ENE 6.9 mph - N/A   Clear
6:53 AM 46.0 °F 42.5 °F 41.0 °F 83% 30.16 in 10.0 mi ENE 6.9 mph - N/A   Clear
7:53 AM 46.0 °F 41.4 °F 41.0 °F 83% 30.13 in 10.0 mi East 9.2 mph - N/A   Clear
8:53 AM 48.0 °F - 42.1 °F 80% 30.11 in 10.0 mi ENE 12.7 mph - N/A   Clear
9:53 AM 50.0 °F - 44.1 °F 80% 30.10 in 10.0 mi East 13.8 mph - N/A   Mostly Cloudy
10:53 AM 51.1 °F - 45.0 °F 80% 30.08 in 10.0 mi East 10.4 mph - N/A   Overcast
11:53 AM 51.1 °F - 46.9 °F 86% 30.06 in 5.0 mi East 9.2 mph - 0.01 in Rain Light Rain
12:53 PM 52.0 °F - 48.0 °F 86% 30.02 in 6.0 mi East 12.7 mph 20.7 mph 0.03 in Rain Light Rain
1:37 PM 53.1 °F - 48.9 °F 86% 29.98 in 3.0 mi East 12.7 mph - 0.04 in Rain Rain
1:53 PM 53.1 °F - 48.9 °F 86% 29.96 in 3.0 mi East 12.7 mph - 0.08 in Rain Rain
2:04 PM 52.0 °F - 50.0 °F 93% 29.97 in 2.5 mi ESE 11.5 mph - 0.03 in Rain Rain
2:22 PM 52.0 °F - 50.0 °F 93% 29.94 in 3.0 mi East 11.5 mph 20.7 mph 0.08 in Rain Rain
2:25 PM 52.0 °F - 50.0 °F 93% 29.94 in 2.5 mi East 11.5 mph - 0.09 in Rain Rain
2:33 PM 52.0 °F - 50.0 °F 93% 29.93 in 2.5 mi East 11.5 mph - 0.12 in Rain Rain
2:50 PM 51.8 °F - 50.0 °F 94% 29.91 in 2.0 mi East 12.7 mph - 0.18 in Rain Rain
2:53 PM 52.0 °F - 50.0 °F 93% 29.90 in 2.5 mi East 16.1 mph - 0.18 in Rain Light Rain
3:01 PM 53.1 °F - 50.0 °F 89% 29.91 in 4.0 mi East 13.8 mph - 0.01 in Rain Light Rain
3:15 PM 52.0 °F - 50.0 °F 93% 29.89 in 2.5 mi East 12.7 mph 19.6 mph 0.05 in Rain Rain
3:38 PM 53.1 °F - 50.0 °F 89% 29.87 in 3.0 mi East 15.0 mph - 0.12 in Rain Rain
3:53 PM 53.1 °F - 50.0 °F 89% 29.86 in 2.5 mi East 13.8 mph - 0.15 in Rain Rain
4:53 PM 53.1 °F - 50.0 °F 89% 29.81 in 5.0 mi East 16.1 mph - 0.05 in Rain Light Rain
5:53 PM 54.0 °F - 51.1 °F 90% 29.79 in 4.0 mi East 12.7 mph - 0.08 in Rain Light Rain
6:08 PM 54.0 °F - 52.0 °F 93% 29.78 in 1.8 mi East 11.5 mph - 0.06 in Rain Heavy Rain
6:16 PM 54.0 °F - 52.0 °F 93% 29.76 in 3.0 mi East 15.0 mph - 0.09 in Rain Rain
6:53 PM 55.9 °F - 53.1 °F 90% 29.73 in 9.0 mi ESE 13.8 mph - 0.11 in Rain Light Rain
7:53 PM 57.0 °F - 55.0 °F 93% 29.68 in 10.0 mi ESE 16.1 mph 23.0 mph 0.13 in Rain Light Rain
8:28 PM 59.0 °F - 55.0 °F 87% 29.67 in 10.0 mi SE 21.9 mph 29.9 mph 0.02 in   Overcast
8:53 PM 59.0 °F - 55.0 °F 87% 29.64 in 10.0 mi ESE 17.3 mph 26.5 mph 0.03 in Rain Light Rain
9:53 PM 61.0 °F - 55.9 °F 83% 29.60 in 10.0 mi SE 19.6 mph 27.6 mph 0.00 in   Overcast
10:53 PM 61.0 °F - 57.0 °F 87% 29.59 in 10.0 mi SE 21.9 mph 31.1 mph 0.00 in   Overcast
11:53 PM 61.0 °F - 57.0 °F 87% 29.56 in 7.0 mi SE 19.6 mph 26.5 mph 0.00 in Rain Light Rain